Location: Oshawa
(43.9000°N, 78.8670°W)
Time: 05:46:43
(UTC-04:00)

Explorer 7 - Visible Passes

Search period start: 01 November 2014 00:00
Search period end: 10 November 2014 23:00
Orbit: 491 x 704 km, 50.3° (Epoch: 31 October)

Date Brightness Start Highest point End Pass type
(mag) Time Alt. Az. Time Alt. Az. Time Alt. Az.
01 Nov 10.1 04:14:45 13° ENE 04:14:45 13° ENE 04:15:16 10° ENE visible
01 Nov 7.9 05:51:24 36° NNW 05:52:31 43° NNE 05:57:09 10° E visible
02 Nov 9.9 03:24:27 15° ENE 03:24:27 15° ENE 03:25:27 10° ENE visible
02 Nov 7.7 05:01:06 36° NW 05:02:40 52° NNE 05:07:26 10° E visible
03 Nov 9.6 03:34:10 19° ENE 03:34:10 19° ENE 03:35:41 10° ENE visible
03 Nov 7.3 05:10:49 35° NW 05:12:45 70° NNE 05:17:37 10° ESE visible
04 Nov 9.4 03:43:56 23° ENE 03:43:56 23° ENE 03:45:58 10° E visible
04 Nov 7.1 05:20:35 32° WNW 05:22:44 83° SSW 05:27:37 10° ESE visible
05 Nov 9.0 03:53:44 28° E 03:53:44 28° E 03:56:14 10° E visible
05 Nov 7.4 05:30:24 28° W 05:32:38 54° SW 05:37:23 10° SE visible
06 Nov 8.7 04:03:37 33° E 04:03:37 33° E 04:06:24 10° ESE visible
06 Nov 8.0 05:40:17 23° W 05:42:26 34° SW 05:46:48 10° SSE visible
07 Nov 8.5 04:13:34 35° ESE 04:13:34 35° ESE 04:16:24 10° ESE visible
07 Nov 8.7 05:50:14 16° WSW 05:52:08 21° SW 05:55:44 10° S visible
08 Nov 8.6 04:23:35 30° SSE 04:23:35 30° SSE 04:26:10 10° SE visible
08 Nov 9.2 06:00:15 11° WSW 06:01:45 12° SW 06:03:34 10° SSW visible
09 Nov 9.0 04:33:40 21° S 04:33:40 21° S 04:35:36 10° SSE visible
10 Nov 9.5 04:43:50 13° S 04:43:50 13° S 04:44:34 10° S visible
